Location: L�Ave Maria
(50.7161°N, 1.5911°E)
Time: 12:49:16
(UTC+00:00)

Cosmos 1606 - Pass Details

Date: 10 July 2020
Orbit: 505 x 527 km, 82.5° (Epoch: 06 August)

Event Time Altitude Azimuth Distance (km) Brightness Sun altitude
Rises 23:05:10 0° 344° (NNW) 2,671 8.2 -16.2°
Reaches altitude 10° 23:07:23 10° 337° (NNW) 1,779 6.7 -16.3°
Maximum altitude 23:11:03 41° 267° (W) 782 3.6 -16.4°
Enters shadow 23:12:49 25° 213° (SSW) 1,095 3.9 -16.5°
